Englewood, CO

1:26 AM MST on February 14, 2016 (GMT -0700)
Centennial

Weather History for KAPA - January, 2013

Change the Weather History Date:

Monday, January 7, 2013

  Actual Average Record
Temperature  
Mean Temperature 36 °F -  
Max Temperature 49 °F 42 °F 69 °F (2006)
Min Temperature 23 °F 19 °F 6 °F (1997)
Degree Days  
Heating Degree Days 29    
Month to date heating degree days 274  
Moisture  
Dew Point 9 °F    
Average Humidity 37    
Maximum Humidity 55    
Minimum Humidity 18    
Precipitation  
Precipitation 0.00 in - - ()
Month to date precipitation 0.00  
Year to date precipitation 0.00  
Sea Level Pressure  
Sea Level Pressure 29.93 in    
Wind  
Wind Speed 7 mph (South)    
Max Wind Speed 14 mph    
Max Gust Speed 16 mph    
Visibility 10 miles    
Events      
Averages and records for this station are not official NWS values.
T = Trace of Precipitation, MM = Missing Value Source: NWS Daily Summary

Daily Weather History Graph

Daily Weather History Graph

Search for Another Location

Airport or City:

Trip Planner

Search our weather history database for the weather conditions in past years. The results will help you decide how hot, cold, wet, or windy it might be!

Date:

Astronomy

Jan. 07, 2013 Rise Set
Actual Time 7:20 AM MST 4:51 PM MST
Civil Twilight 6:50 AM MST 5:21 PM MST
Nautical Twilight 6:16 AM MST 5:55 PM MST
Astronomical Twilight 5:44 AM MST 6:27 PM MST
Moon 2:47 AM MST (1/7) 1:04 PM MST (1/7)
Length of Visible Light 10h 31m
Length of Day
9h 31m
Waning Crescent, 22% of the Moon is Illuminated
Jan 7
Waning Crescent
Jan 11
New
Jan 18
First Quarter
Jan 26
Full
Feb 3
Last Quarter

Hourly Weather History & Observations

Time (MST) Temp. Windchill Dew Point Humidity Pressure Visibility Wind Dir Wind Speed Gust Speed Precip Events Conditions
12:53 AM 37.9 °F 30.5 °F 9.0 °F 30% 29.90 in 10.0 mi SSW 11.5 mph - N/A   Mostly Cloudy
1:53 AM 37.9 °F - 8.1 °F 29% 29.90 in 10.0 mi Calm Calm - N/A   Mostly Cloudy
2:53 AM 37.0 °F 29.8 °F 10.0 °F 33% 29.92 in 10.0 mi South 10.4 mph - N/A   Mostly Cloudy
3:53 AM 39.9 °F 35.8 °F 7.0 °F 26% 29.92 in 10.0 mi SSE 5.8 mph - N/A   Mostly Cloudy
4:53 AM 35.1 °F 32.2 °F 9.0 °F 34% 29.95 in 10.0 mi ESE 3.5 mph - N/A   Mostly Cloudy
5:53 AM 35.1 °F 29.3 °F 7.0 °F 31% 29.99 in 10.0 mi West 6.9 mph - N/A   Mostly Cloudy
6:53 AM 30.9 °F 25.2 °F 7.0 °F 37% 30.03 in 10.0 mi WSW 5.8 mph - N/A   Mostly Cloudy
7:53 AM 28.9 °F - 9.0 °F 43% 30.05 in 10.0 mi Calm Calm - N/A   Mostly Cloudy
8:53 AM 32.0 °F 28.7 °F 9.0 °F 38% 30.06 in 10.0 mi South 3.5 mph - N/A   Mostly Cloudy
9:53 AM 39.9 °F 35.8 °F 8.1 °F 27% 30.03 in 10.0 mi South 5.8 mph - N/A   Scattered Clouds
10:53 AM 43.0 °F 38.8 °F 5.0 °F 21% 30.01 in 10.0 mi SW 6.9 mph - N/A   Scattered Clouds
11:53 AM 46.0 °F 43.1 °F 6.1 °F 20% 29.93 in 10.0 mi SSE 5.8 mph - N/A   Scattered Clouds
12:53 PM 46.9 °F - 9.0 °F 21% 29.90 in 10.0 mi SE 4.6 mph - N/A   Mostly Cloudy
1:53 PM 48.0 °F - 7.0 °F 19% 29.88 in 10.0 mi SE 5.8 mph - N/A   Mostly Cloudy
2:53 PM 48.0 °F - 6.1 °F 18% 29.87 in 10.0 mi SSE 5.8 mph - N/A   Mostly Cloudy
4:53 PM 44.1 °F 40.1 °F 12.9 °F 28% 29.88 in 10.0 mi SE 6.9 mph - N/A   Mostly Cloudy
5:53 PM 39.0 °F 32.3 °F 12.9 °F 34% 29.89 in 10.0 mi SSE 10.4 mph - N/A   Mostly Cloudy
6:53 PM 34.0 °F 25.5 °F 12.9 °F 42% 29.92 in 10.0 mi South 11.5 mph - N/A   Mostly Cloudy
7:53 PM 35.1 °F 28.6 °F 10.9 °F 37% 29.92 in 10.0 mi SSE 8.1 mph - N/A   Scattered Clouds
8:53 PM 30.0 °F 23.2 °F 12.0 °F 47% 29.91 in 10.0 mi South 6.9 mph - N/A   Scattered Clouds
9:53 PM 30.9 °F 22.2 °F 10.9 °F 43% 29.86 in 10.0 mi South 10.4 mph - N/A   Scattered Clouds
10:53 PM 24.1 °F 13.7 °F 10.9 °F 57% 29.87 in 10.0 mi South 10.4 mph - N/A   Scattered Clouds
11:53 PM 28.0 °F 20.8 °F 9.0 °F 45% 29.83 in 10.0 mi SSE 6.9 mph - N/A   Partly Cloudy